Time,TemperatureF,DewpointF,PressureIn,WindDirection,WindDirectionDegrees,WindSpeedMPH,WindSpeedGustMPH,Humidity,HourlyPrecipIn,Conditions,Clouds,dailyrainin,SoftwareType,DateUTC
2015-05-23 00:05:00,62.2,52.3,30.25,West,281,0.0,4.0,70,0.00,,,0.00,Wunderground v.1.15,2015-05-23 04:05:00,
2015-05-23 00:14:00,61.6,51.7,30.25,West,281,0.0,4.0,70,0.00,,,0.00,Wunderground v.1.15,2015-05-23 04:14:00,
2015-05-23 00:25:00,61.5,51.6,30.25,West,281,0.0,4.0,70,0.00,,,0.00,Wunderground v.1.15,2015-05-23 04:25:00,
2015-05-23 00:34:00,61.3,52.2,30.25,West,281,0.0,4.0,72,0.00,,,0.00,Wunderground v.1.15,2015-05-23 04:34:00,
2015-05-23 00:44:00,61.1,52.0,30.26,West,281,0.0,4.0,72,0.00,,,0.00,Wunderground v.1.15,2015-05-23 04:44:00,
2015-05-23 00:50:00,61.1,51.6,30.26,West,281,0.0,4.0,71,0.00,,,0.00,Wunderground v.1.15,2015-05-23 04:50:00,
2015-05-23 00:59:00,61.2,51.7,30.26,West,281,0.0,4.0,71,0.00,,,0.00,Wunderground v.1.15,2015-05-23 04:59:00,
2015-05-23 01:10:00,61.2,51.7,30.26,West,281,0.0,4.0,71,0.00,,,0.00,Wunderground v.1.15,2015-05-23 05:10:00,
2015-05-23 01:19:00,61.2,51.7,30.26,West,281,0.0,4.0,71,0.00,,,0.00,Wunderground v.1.15,2015-05-23 05:19:00,
2015-05-23 01:30:00,60.9,51.8,30.25,West,281,0.0,4.0,72,0.00,,,0.00,Wunderground v.1.15,2015-05-23 05:30:00,
2015-05-23 01:39:00,60.8,51.7,30.25,West,281,0.0,4.0,72,0.00,,,0.00,Wunderground v.1.15,2015-05-23 05:39:00,
2015-05-23 01:50:00,61.0,51.5,30.25,West,281,0.0,4.0,71,0.00,,,0.00,Wunderground v.1.15,2015-05-23 05:50:00,
2015-05-23 01:59:00,61.2,51.3,30.25,West,281,0.0,4.0,70,0.00,,,0.00,Wunderground v.1.15,2015-05-23 05:59:00,
2015-05-23 02:09:00,61.4,51.1,30.25,West,281,0.0,4.0,69,0.00,,,0.00,Wunderground v.1.15,2015-05-23 06:09:00,
2015-05-23 02:15:00,61.2,50.9,30.25,West,281,0.0,4.0,69,0.00,,,0.00,Wunderground v.1.15,2015-05-23 06:15:00,
2015-05-23 02:24:00,61.1,50.8,30.25,West,281,0.0,4.0,69,0.00,,,0.00,Wunderground v.1.15,2015-05-23 06:24:00,
2015-05-23 02:34:00,60.7,50.9,30.25,West,281,0.0,4.0,70,0.00,,,0.00,Wunderground v.1.15,2015-05-23 06:34:00,
2015-05-23 02:40:00,60.8,50.6,30.25,West,281,0.0,4.0,69,0.00,,,0.00,Wunderground v.1.15,2015-05-23 06:40:00,
2015-05-23 02:49:00,60.3,50.1,30.25,West,281,0.0,4.0,69,0.00,,,0.00,Wunderground v.1.15,2015-05-23 06:49:00,
2015-05-23 03:00:00,60.1,50.3,30.25,West,281,0.0,4.0,70,0.00,,,0.00,Wunderground v.1.15,2015-05-23 07:00:00,
2015-05-23 03:09:00,59.8,50.0,30.25,West,281,0.0,4.0,70,0.00,,,0.00,Wunderground v.1.15,2015-05-23 07:09:00,
2015-05-23 03:14:00,59.5,50.1,30.25,West,281,0.0,4.0,71,0.00,,,0.00,Wunderground v.1.15,2015-05-23 07:14:00,
2015-05-23 03:24:00,59.1,50.1,30.26,West,281,0.0,4.0,72,0.00,,,0.00,Wunderground v.1.15,2015-05-23 07:24:00,
2015-05-23 03:35:00,58.7,50.1,30.26,West,281,0.0,4.0,73,0.00,,,0.00,Wunderground v.1.15,2015-05-23 07:35:00,
2015-05-23 03:44:00,58.1,49.9,30.26,West,281,0.0,4.0,74,0.00,,,0.00,Wunderground v.1.15,2015-05-23 07:44:00,
2015-05-23 03:55:00,57.8,49.6,30.26,West,281,0.0,4.0,74,0.00,,,0.00,Wunderground v.1.15,2015-05-23 07:55:00,
2015-05-23 04:04:00,58.0,49.8,30.26,West,281,0.0,4.0,74,0.00,,,0.00,Wunderground v.1.15,2015-05-23 08:04:00,
2015-05-23 04:15:00,58.2,50.0,30.27,West,281,0.0,4.0,74,0.00,,,0.00,Wunderground v.1.15,2015-05-23 08:15:00,
2015-05-23 04:24:00,58.4,50.1,30.26,West,281,0.0,4.0,74,0.00,,,0.00,Wunderground v.1.15,2015-05-23 08:24:00,
2015-05-23 04:40:00,58.4,50.1,30.27,West,281,0.0,4.0,74,0.00,,,0.00,Wunderground v.1.15,2015-05-23 08:40:00,
2015-05-23 04:49:00,58.5,50.6,30.27,West,281,0.0,4.0,75,0.00,,,0.00,Wunderground v.1.15,2015-05-23 08:49:00,
2015-05-23 05:00:00,58.6,50.7,30.28,West,281,0.0,4.0,75,0.00,,,0.00,Wunderground v.1.15,2015-05-23 09:00:00,
2015-05-23 05:09:00,58.5,50.6,30.28,West,281,0.0,4.0,75,0.00,,,0.00,Wunderground v.1.15,2015-05-23 09:09:00,
2015-05-23 05:19:00,57.8,50.3,30.28,West,281,0.0,4.0,76,0.00,,,0.00,Wunderground v.1.15,2015-05-23 09:19:00,
2015-05-23 05:25:00,57.6,50.4,30.28,West,281,0.0,4.0,77,0.00,,,0.00,Wunderground v.1.15,2015-05-23 09:25:00,
2015-05-23 05:34:00,57.4,50.2,30.29,West,281,0.0,4.0,77,0.00,,,0.00,Wunderground v.1.15,2015-05-23 09:34:00,
2015-05-23 05:45:00,56.7,49.9,30.29,West,281,0.0,4.0,78,0.00,,,0.00,Wunderground v.1.15,2015-05-23 09:45:00,